Location: Clatteringshaws Loch
(55.0508°N, 4.2860°W)
Time: 23:09:06
(UTC+01:00)

SR - Visible Passes

Search period start: 06 July 2015 00:00
Search period end: 16 July 2015 00:00
Orbit: 583 x 878 km, 66.7° (Epoch: 05 July)

Date Brightness Start Highest point End Pass type
(mag) Time Alt. Az. Time Alt. Az. Time Alt. Az.
06 Jul ? 01:02:01 16° SSW 01:05:12 53° SE 01:09:32 10° NE visible
06 Jul ? 02:43:28 10° W 02:47:29 37° NNW 02:51:42 10° NE visible
07 Jul ? 00:13:46 16° S 00:16:26 30° ESE 00:20:18 10° ENE visible
07 Jul ? 01:54:06 10° WSW 01:58:19 55° NW 02:02:44 10° NE visible
07 Jul ? 03:37:50 10° WNW 03:41:19 22° NNW 03:44:58 10° NE visible
07 Jul ? 23:25:26 11° SSE 23:27:48 17° ESE 23:30:38 10° ENE visible
08 Jul ? 01:04:59 10° SW 01:09:16 89° NW 01:13:46 10° NE visible
08 Jul ? 02:48:10 10° W 02:51:57 27° NNW 02:55:53 10° NE visible
09 Jul ? 00:16:23 11° SSW 00:20:22 52° SE 00:24:43 10° NE visible
09 Jul ? 01:58:36 10° W 02:02:38 37° NNW 02:06:54 10° NE visible
09 Jul ? 03:42:36 10° NW 03:45:56 20° N 03:49:25 10° NE visible
09 Jul ? 23:27:57 10° S 23:31:37 29° ESE 23:35:28 10° ENE visible
10 Jul ? 01:09:14 10° WSW 01:13:28 56° NW 01:17:56 10° NE visible
10 Jul ? 02:52:57 10° WNW 02:56:29 23° NNW 03:00:10 10° NE visible
11 Jul ? 00:20:09 10° SW 00:24:26 89° SE 00:28:57 10° NE visible
11 Jul ? 02:03:18 10° W 02:07:06 28° NNW 02:11:05 10° NE visible
11 Jul ? 03:47:15 10° NW 03:50:34 20° N 03:54:04 10° NE visible
11 Jul ? 23:31:25 10° SSW 23:35:32 51° SE 23:39:54 10° NE visible
12 Jul ? 01:13:44 10° WSW 01:17:48 38° NNW 01:22:05 10° NE visible
12 Jul ? 02:57:43 10° NW 03:01:05 20° N 03:04:37 10° NE visible
12 Jul ? 22:43:08 10° S 22:46:47 29° ESE 22:50:38 10° ENE visible
13 Jul ? 00:24:23 10° WSW 00:28:37 57° NW 00:33:07 10° NE visible
13 Jul ? 02:08:04 10° WNW 02:11:38 23° NNW 02:15:22 10° NE visible
13 Jul ? 03:51:43 10° NW 03:55:12 21° N 03:58:54 10° ENE visible
13 Jul ? 23:35:18 10° SW 23:39:35 88° SE 23:44:08 10° NE visible
14 Jul ? 01:18:25 10° W 01:22:15 28° NNW 01:26:16 10° NE visible
14 Jul ? 03:02:22 10° NW 03:05:43 20° N 03:09:15 10° NE visible
14 Jul ? 22:46:34 10° SSW 22:50:42 50° SE 22:55:04 10° NE visible
15 Jul ? 00:28:52 10° WSW 00:32:57 38° NNW 00:37:16 10° NE visible
15 Jul ? 02:12:50 10° WNW 02:16:14 20° N 02:19:48 10° NE visible
15 Jul ? 03:56:00 10° NW 03:59:47 24° NNE 04:03:50 10° ENE visible
15 Jul ? 23:39:31 10° WSW 23:43:46 58° NW 23:48:18 10° NE visible
